CZ-3C DEB, 42467

Orbit data source: Space-Track

CZ-3C DEB, 42467 is space debris in HEO originally from a launch on Sun, 31 Oct 2010 UTC launched from the Xichang Space Center, China (XSC). Debris objects in space refer to the collection of defunct objects orbiting the Earth. Examples of debris include non-operational satellites, rocket bodies, and fragments generated from explosions, collisions, or faulty payload assembly.

Loading next visibility...
Identifier
42467, 2010-057BG
Orbit
HEO
Country
Flag of CNCN / PRC
Related business
Manufacturer
CALT
Mission
Spacecraft
Bus & Motor
Unknown
Mass
Unknown
Launch date (UTC)
2010-10-31 (15 years ago)
Launch vehicle
Unknown
Launch site
Xichang Space Center, China (XSC)
Object type
Payload
Rocket body
Debris
Shape & HBR
Unknown shape, 0.2 m
Radar Cross Section
Medium (>0.1 m² and <1 m²)

Expand to show TLE details & history
Last TLE update: 22 hours ago

TLE from 22 hours ago
0 CZ-3C DEB
1 42467U 10057BG  26067.60267472  .00024444  00000-0  14468-1 0  9993
2 42467  20.1028 217.4470 4482342 143.5399 257.5458  6.34472974234746
Epoch: 2026-03-08T14:27Z
TLE epoch observation values (Epoch: 2026-03-08T14:27:51.095Z)
Latitude
0.00001°
Longitude
-165.8424°
Altitude
9,017.863 km
Speed
4.41 km/s
True Right ascension
14h 29m 42s
True Declination
0° 00' 00"
Sunlit
Object was in daylight at epoch
Visualization orbit readout
Latitude
Unknown
Longitude
Unknown
Altitude
Unknown
Speed
Unknown
Apparent Right ascension
Unknown
Apparent Declination
Unknown
Sunlit
N/A
Visualization observer readout
Local Sidereal Time
16:48:22
Azimuth
Unknown
Elevation
Unknown
Doppler factor
Unknown
Orbital elements
Apogee altitude
11,477.576 km
Perigee altitude
424.749 km
Semi-major axis
12,329.299 km
Eccentricity
0.44823
Inclination
20.1028°
RAAN
217.447°
Arg. of periapsis
143.5399°
True anomaly
216.4848°
Mean anomaly
257.5458°
Eccentric anomaly
236.20362°
Mean motion
1.58539 °/min
Orbital period
227.07 mins
BSTAR
0.014468
Loading maneuver chart data...
Computing Atmospheric mass density...
Loading historical data...
Loading historical data...
Loading historical data...
Loading historical data...
Loading historical data...
Loading historical data...
Loading historical data...

Documentation

Showing up to 5 results
|